Location: Brusselsch Zeekanaal
(50.8667°N, 4.3667°E)
Time: 10:07:02
(UTC+00:00)

Lacrosse 5 rocket - Pass Details

Date: 08 November 2025
Orbit: 406 x 492 km, 57.0° (Epoch: 12 December)

Event Time Altitude Azimuth Distance (km) Brightness Sun altitude
Exits shadow 05:19:55 21° 316° (NW) 1,024 2.2 -13.8°
Maximum altitude 05:21:18 28° 355° (N) 832 2.1 -13.6°
Drops below altitude 10° 05:24:16 10° 58° (ENE) 1,504 4.3 -13.2°
Sets 05:26:30 0° 70° (ENE) 2,356 5.7 -12.8°
